Year,Month,Day,Hour,Minute,Value (Times are PST for temperature in C)
2009,09,23,00,00,13.20
2009,09,23,00,01,13.20
2009,09,23,00,02,13.20
2009,09,23,00,03,13.20
2009,09,23,00,04,13.20
2009,09,23,00,05,13.20
2009,09,23,00,06,13.20
2009,09,23,00,07,13.20
2009,09,23,00,08,13.20
2009,09,23,00,09,13.20
2009,09,23,00,10,13.20
2009,09,23,00,11,13.20
2009,09,23,00,12,13.20
2009,09,23,00,13,13.20
2009,09,23,00,14,13.20
2009,09,23,00,15,13.20
2009,09,23,00,16,13.20
2009,09,23,00,17,13.20
2009,09,23,00,18,13.20
2009,09,23,00,19,13.20
2009,09,23,00,20,13.20
2009,09,23,00,21,13.20
2009,09,23,00,22,13.20
2009,09,23,00,23,13.20
2009,09,23,00,24,13.30
2009,09,23,00,25,13.30
2009,09,23,00,26,13.30
2009,09,23,00,27,13.30
2009,09,23,00,28,13.30
2009,09,23,00,29,13.30
2009,09,23,00,30,13.30
2009,09,23,00,31,13.30
2009,09,23,00,32,13.30
2009,09,23,00,33,13.30
2009,09,23,00,34,13.30
2009,09,23,00,35,13.30
2009,09,23,00,36,13.30
2009,09,23,00,37,13.30
2009,09,23,00,38,13.20
2009,09,23,00,39,13.20
2009,09,23,00,40,13.20
2009,09,23,00,41,13.20
2009,09,23,00,42,13.20
2009,09,23,00,43,13.10
2009,09,23,00,44,13.00
2009,09,23,00,45,13.00
2009,09,23,00,46,12.90
2009,09,23,00,47,12.80
2009,09,23,00,48,12.70
2009,09,23,00,49,12.70
2009,09,23,00,50,12.70
2009,09,23,00,51,12.60
2009,09,23,00,52,12.60
2009,09,23,00,53,12.60
2009,09,23,00,54,12.50
2009,09,23,00,55,12.50
2009,09,23,00,56,12.50
2009,09,23,00,57,12.40
2009,09,23,00,58,12.40
2009,09,23,00,59,12.40
2009,09,23,01,00,12.40
2009,09,23,01,01,12.40
2009,09,23,01,02,12.40
2009,09,23,01,03,12.40
2009,09,23,01,04,12.40
2009,09,23,01,05,12.40
2009,09,23,01,06,12.40
2009,09,23,01,07,12.40
2009,09,23,01,08,12.40
2009,09,23,01,09,12.40
2009,09,23,01,10,12.30
2009,09,23,01,11,12.30
2009,09,23,01,12,12.30
2009,09,23,01,13,12.30
2009,09,23,01,14,12.30
2009,09,23,01,15,12.30
2009,09,23,01,16,12.30
2009,09,23,01,17,12.30
2009,09,23,01,18,12.30
2009,09,23,01,19,12.30
2009,09,23,01,20,12.30
2009,09,23,01,21,12.30
2009,09,23,01,22,12.30
2009,09,23,01,23,12.30
2009,09,23,01,24,12.30
2009,09,23,01,25,12.30
2009,09,23,01,26,12.30
2009,09,23,01,27,12.30
2009,09,23,01,28,12.30
2009,09,23,01,29,12.30
2009,09,23,01,30,12.20
2009,09,23,01,31,12.20
2009,09,23,01,32,12.30
2009,09,23,01,33,12.30
2009,09,23,01,34,12.30
2009,09,23,01,35,12.30
2009,09,23,01,36,12.40
2009,09,23,01,37,12.40
2009,09,23,01,38,12.50
2009,09,23,01,39,12.50
2009,09,23,01,40,12.50
2009,09,23,01,41,12.60
2009,09,23,01,42,12.60
2009,09,23,01,43,12.60
2009,09,23,01,44,12.70
2009,09,23,01,45,12.70
2009,09,23,01,46,12.70
2009,09,23,01,47,12.80
2009,09,23,01,48,12.80
2009,09,23,01,49,12.80
2009,09,23,01,50,12.80
2009,09,23,01,51,12.80
2009,09,23,01,52,12.80
2009,09,23,01,53,12.80
2009,09,23,01,54,12.70
2009,09,23,01,55,12.70
2009,09,23,01,56,12.70
2009,09,23,01,57,12.70
2009,09,23,01,58,12.60
2009,09,23,01,59,12.60
2009,09,23,02,00,12.50
2009,09,23,02,01,12.50
2009,09,23,02,02,12.40
2009,09,23,02,03,12.40
2009,09,23,02,04,12.40
2009,09,23,02,05,12.30
2009,09,23,02,06,12.30
2009,09,23,02,07,12.30
2009,09,23,02,08,12.20
2009,09,23,02,09,12.20
2009,09,23,02,10,12.10
2009,09,23,02,11,12.10
2009,09,23,02,12,12.00
2009,09,23,02,13,12.00
2009,09,23,02,14,12.00
2009,09,23,02,15,11.90
2009,09,23,02,16,11.90
2009,09,23,02,17,11.90
2009,09,23,02,18,11.80
2009,09,23,02,19,11.80
2009,09,23,02,20,11.80
2009,09,23,02,21,11.80
2009,09,23,02,22,11.70
2009,09,23,02,23,11.70
2009,09,23,02,24,11.70
2009,09,23,02,25,11.70
2009,09,23,02,26,11.70
2009,09,23,02,27,11.70
2009,09,23,02,28,11.80
2009,09,23,02,29,11.80
2009,09,23,02,30,11.90
2009,09,23,02,31,11.90
2009,09,23,02,32,11.90
2009,09,23,02,33,11.90
2009,09,23,02,34,11.90
2009,09,23,02,35,11.90
2009,09,23,02,36,11.90
2009,09,23,02,37,11.90
2009,09,23,02,38,11.90
2009,09,23,02,39,11.80
2009,09,23,02,40,11.80
2009,09,23,02,41,11.80
2009,09,23,02,42,11.80
2009,09,23,02,43,11.80
2009,09,23,02,44,11.80
2009,09,23,02,45,11.80
2009,09,23,02,46,11.70
2009,09,23,02,47,11.70
2009,09,23,02,48,11.70
2009,09,23,02,49,11.70
2009,09,23,02,50,11.60
2009,09,23,02,51,11.60
2009,09,23,02,52,11.50
2009,09,23,02,53,11.50
2009,09,23,02,54,11.40
2009,09,23,02,55,11.40
2009,09,23,02,56,11.40
2009,09,23,02,57,11.40
2009,09,23,02,58,11.30
2009,09,23,02,59,11.30
2009,09,23,03,00,11.40
2009,09,23,03,01,11.40
2009,09,23,03,02,11.40
2009,09,23,03,03,11.40
2009,09,23,03,04,11.50
2009,09,23,03,05,11.50
2009,09,23,03,06,11.60
2009,09,23,03,07,11.60
2009,09,23,03,08,11.60
2009,09,23,03,09,11.70
2009,09,23,03,10,11.70
2009,09,23,03,11,11.70
2009,09,23,03,12,11.70
2009,09,23,03,13,11.70
2009,09,23,03,14,11.70
2009,09,23,03,15,11.70
2009,09,23,03,16,11.70
2009,09,23,03,17,11.70
2009,09,23,03,18,11.70
2009,09,23,03,19,11.70
2009,09,23,03,20,11.70
2009,09,23,03,21,11.70
2009,09,23,03,22,11.70
2009,09,23,03,23,11.60
2009,09,23,03,24,11.60
2009,09,23,03,25,11.60
2009,09,23,03,26,11.60
2009,09,23,03,27,11.60
2009,09,23,03,28,11.60
2009,09,23,03,29,11.50
2009,09,23,03,30,11.50
2009,09,23,03,31,11.50
2009,09,23,03,32,11.60
2009,09,23,03,33,11.60
2009,09,23,03,34,11.60
2009,09,23,03,35,11.60
2009,09,23,03,36,11.60
2009,09,23,03,37,11.60
2009,09,23,03,38,11.70
2009,09,23,03,39,11.60
2009,09,23,03,40,11.60
2009,09,23,03,41,11.60
2009,09,23,03,42,11.60
2009,09,23,03,43,11.60
2009,09,23,03,44,11.60
2009,09,23,03,45,11.60
2009,09,23,03,46,11.60
2009,09,23,03,47,11.50
2009,09,23,03,48,11.40
2009,09,23,03,49,11.40
2009,09,23,03,50,11.30
2009,09,23,03,51,11.30
2009,09,23,03,52,11.20
2009,09,23,03,53,11.10
2009,09,23,03,54,11.10
2009,09,23,03,55,11.00
2009,09,23,03,56,10.90
2009,09,23,03,57,10.90
2009,09,23,03,58,10.80
2009,09,23,03,59,10.80
2009,09,23,04,00,10.70
2009,09,23,04,01,10.70
2009,09,23,04,02,10.70
2009,09,23,04,03,10.70
2009,09,23,04,04,10.80
2009,09,23,04,05,10.80
2009,09,23,04,06,10.80
2009,09,23,04,07,10.80
2009,09,23,04,08,10.90
2009,09,23,04,09,10.90
2009,09,23,04,10,10.90
2009,09,23,04,11,11.00
2009,09,23,04,12,11.00
2009,09,23,04,13,11.10
2009,09,23,04,14,11.20
2009,09,23,04,15,11.30
2009,09,23,04,16,11.30
2009,09,23,04,17,11.40
2009,09,23,04,18,11.50
2009,09,23,04,19,11.60
2009,09,23,04,20,11.60
2009,09,23,04,21,11.70
2009,09,23,04,22,11.80
2009,09,23,04,23,11.80
2009,09,23,04,24,11.80
2009,09,23,04,25,11.80
2009,09,23,04,26,11.80
2009,09,23,04,27,11.80
2009,09,23,04,28,11.80
2009,09,23,04,29,11.70
2009,09,23,04,30,11.70
2009,09,23,04,31,11.60
2009,09,23,04,32,11.60
2009,09,23,04,33,11.50
2009,09,23,04,34,11.40
2009,09,23,04,35,11.30
2009,09,23,04,36,11.10
2009,09,23,04,37,11.00
2009,09,23,04,38,10.90
2009,09,23,04,39,10.80
2009,09,23,04,40,10.70
2009,09,23,04,41,10.60
2009,09,23,04,42,10.60
2009,09,23,04,43,10.60
2009,09,23,04,44,10.50
2009,09,23,04,45,10.50
2009,09,23,04,46,10.50
2009,09,23,04,47,10.40
2009,09,23,04,48,10.40
2009,09,23,04,49,10.40
2009,09,23,04,50,10.50
2009,09,23,04,51,10.50
2009,09,23,04,52,10.60
2009,09,23,04,53,10.60
2009,09,23,04,54,10.60
2009,09,23,04,55,10.70
2009,09,23,04,56,10.70
2009,09,23,04,57,10.80
2009,09,23,04,58,10.80
2009,09,23,04,59,10.90
2009,09,23,05,00,10.90
2009,09,23,05,01,10.90
2009,09,23,05,02,10.90
2009,09,23,05,03,11.00
2009,09,23,05,04,11.00
2009,09,23,05,05,11.10
2009,09,23,05,06,11.10
2009,09,23,05,07,11.10
2009,09,23,05,08,11.10
2009,09,23,05,09,11.10
2009,09,23,05,10,11.10
2009,09,23,05,11,11.10
2009,09,23,05,12,11.10
2009,09,23,05,13,11.10
2009,09,23,05,14,11.10
2009,09,23,05,15,11.00
2009,09,23,05,16,10.90
2009,09,23,05,17,10.90
2009,09,23,05,18,10.80
2009,09,23,05,19,10.70
2009,09,23,05,20,10.60
2009,09,23,05,21,10.50
2009,09,23,05,22,10.50
2009,09,23,05,23,10.40
2009,09,23,05,24,10.40
2009,09,23,05,25,10.30
2009,09,23,05,26,10.30
2009,09,23,05,27,10.30
2009,09,23,05,28,10.20
2009,09,23,05,29,10.20
2009,09,23,05,30,10.20
2009,09,23,05,31,10.20
2009,09,23,05,32,10.20
2009,09,23,05,33,10.20
2009,09,23,05,34,10.30
2009,09,23,05,35,10.30
2009,09,23,05,36,10.30
2009,09,23,05,37,10.40
2009,09,23,05,38,10.40
2009,09,23,05,39,10.50
2009,09,23,05,40,10.60
2009,09,23,05,41,10.60
2009,09,23,05,42,10.60
2009,09,23,05,43,10.70
2009,09,23,05,44,10.80
2009,09,23,05,45,10.80
2009,09,23,05,46,10.90
2009,09,23,05,47,10.90
2009,09,23,05,48,11.00
2009,09,23,05,49,11.00
2009,09,23,05,50,11.10
2009,09,23,05,51,11.10
2009,09,23,05,52,11.10
2009,09,23,05,53,11.00
2009,09,23,05,54,11.00
2009,09,23,05,55,11.00
2009,09,23,05,56,11.00
2009,09,23,05,57,11.00
2009,09,23,05,58,10.90
2009,09,23,05,59,10.90
2009,09,23,06,00,10.90
2009,09,23,06,01,10.80
2009,09,23,06,02,10.80
2009,09,23,06,03,10.70
2009,09,23,06,04,10.60
2009,09,23,06,05,10.50
2009,09,23,06,06,10.50
2009,09,23,06,07,10.40
2009,09,23,06,08,10.40
2009,09,23,06,09,10.30
2009,09,23,06,10,10.30
2009,09,23,06,11,10.20
2009,09,23,06,12,10.20
2009,09,23,06,13,10.10
2009,09,23,06,14,10.10
2009,09,23,06,15,10.00
2009,09,23,06,16,10.00
2009,09,23,06,17,10.00
2009,09,23,06,18,10.00
2009,09,23,06,19,9.90
2009,09,23,06,20,9.90
2009,09,23,06,21,9.90
2009,09,23,06,22,9.90
2009,09,23,06,23,9.90
2009,09,23,06,24,9.90
2009,09,23,06,25,9.90
2009,09,23,06,26,9.90
2009,09,23,06,27,10.00
2009,09,23,06,28,10.00
2009,09,23,06,29,10.00
2009,09,23,06,30,10.10
2009,09,23,06,31,10.10
2009,09,23,06,32,10.10
2009,09,23,06,33,10.10
2009,09,23,06,34,10.10
2009,09,23,06,35,10.10
2009,09,23,06,36,10.10
2009,09,23,06,37,10.10
2009,09,23,06,38,10.10
2009,09,23,06,39,10.00
2009,09,23,06,40,10.00
2009,09,23,06,41,10.00
2009,09,23,06,42,10.00
2009,09,23,06,43,9.90
2009,09,23,06,44,9.90
2009,09,23,06,45,9.90
2009,09,23,06,46,9.90
2009,09,23,06,47,9.90
2009,09,23,06,48,9.90
2009,09,23,06,49,9.90
2009,09,23,06,50,9.90
2009,09,23,06,51,9.80
2009,09,23,06,52,9.80
2009,09,23,06,53,9.80
2009,09,23,06,54,9.80
2009,09,23,06,55,9.80
2009,09,23,06,56,9.80
2009,09,23,06,57,9.80
2009,09,23,06,58,9.70
2009,09,23,06,59,9.70
2009,09,23,07,00,9.70
2009,09,23,07,01,9.70
2009,09,23,07,02,9.70
2009,09,23,07,03,9.60
2009,09,23,07,04,9.60
2009,09,23,07,05,9.60
2009,09,23,07,06,9.60
2009,09,23,07,07,9.60
2009,09,23,07,08,9.50
2009,09,23,07,09,9.50
2009,09,23,07,10,9.50
2009,09,23,07,11,9.50
2009,09,23,07,12,9.50
2009,09,23,07,13,9.50
2009,09,23,07,14,9.50
2009,09,23,07,15,9.50
2009,09,23,07,16,9.60
2009,09,23,07,17,9.60
2009,09,23,07,18,9.60
2009,09,23,07,19,9.60
2009,09,23,07,20,9.70
2009,09,23,07,21,9.70
2009,09,23,07,22,9.80
2009,09,23,07,23,9.80
2009,09,23,07,24,9.80
2009,09,23,07,25,9.80
2009,09,23,07,26,9.70
2009,09,23,07,27,9.70
2009,09,23,07,28,9.70
2009,09,23,07,29,9.70
2009,09,23,07,30,9.70
2009,09,23,07,31,9.70
2009,09,23,07,32,9.70
2009,09,23,07,33,9.70
2009,09,23,07,34,9.70
2009,09,23,07,35,9.60
2009,09,23,07,36,9.60
2009,09,23,07,37,9.60
2009,09,23,07,38,9.60
2009,09,23,07,39,9.60
2009,09,23,07,40,9.60
2009,09,23,07,41,9.60
2009,09,23,07,42,9.60
2009,09,23,07,43,9.60
2009,09,23,07,44,9.60
2009,09,23,07,45,9.60
2009,09,23,07,46,9.60
2009,09,23,07,47,9.60
2009,09,23,07,48,9.70
2009,09,23,07,49,9.80
2009,09,23,07,50,9.80
2009,09,23,07,51,9.90
2009,09,23,07,52,9.90
2009,09,23,07,53,10.00
2009,09,23,07,54,10.00
2009,09,23,07,55,10.10
2009,09,23,07,56,10.10
2009,09,23,07,57,10.10
2009,09,23,07,58,10.20
2009,09,23,07,59,10.30
2009,09,23,08,00,10.40
2009,09,23,08,01,10.40
2009,09,23,08,02,10.50
2009,09,23,08,03,10.60
2009,09,23,08,04,10.70
2009,09,23,08,05,10.80
2009,09,23,08,06,10.80
2009,09,23,08,07,10.80
2009,09,23,08,08,10.90
2009,09,23,08,09,11.00
2009,09,23,08,10,11.10
2009,09,23,08,11,11.10
2009,09,23,08,12,11.20
2009,09,23,08,13,11.30
2009,09,23,08,14,11.40
2009,09,23,08,15,11.50
2009,09,23,08,16,11.60
2009,09,23,08,17,11.70
2009,09,23,08,18,11.70
2009,09,23,08,19,11.80
2009,09,23,08,20,11.90
2009,09,23,08,21,11.90
2009,09,23,08,22,12.00
2009,09,23,08,23,12.10
2009,09,23,08,24,12.10
2009,09,23,08,25,12.20
2009,09,23,08,26,12.30
2009,09,23,08,27,12.40
2009,09,23,08,28,12.50
2009,09,23,08,29,12.50
2009,09,23,08,30,12.60
2009,09,23,08,31,12.60
2009,09,23,08,32,12.70
2009,09,23,08,33,12.70
2009,09,23,08,34,12.80
2009,09,23,08,35,12.80
2009,09,23,08,36,12.90
2009,09,23,08,37,13.00
2009,09,23,08,38,13.10
2009,09,23,08,39,13.10
2009,09,23,08,40,13.30
2009,09,23,08,41,13.40
2009,09,23,08,42,13.50
2009,09,23,08,43,13.70
2009,09,23,08,44,13.80
2009,09,23,08,45,14.00
2009,09,23,08,46,14.10
2009,09,23,08,47,14.10
2009,09,23,08,48,14.20
2009,09,23,08,49,14.20
2009,09,23,08,50,14.20
2009,09,23,08,51,14.30
2009,09,23,08,52,14.40
2009,09,23,08,53,14.40
2009,09,23,08,54,14.50
2009,09,23,08,55,14.50
2009,09,23,08,56,14.60
2009,09,23,08,57,14.70
2009,09,23,08,58,14.80
2009,09,23,08,59,15.00
2009,09,23,09,00,15.10
2009,09,23,09,01,15.20
2009,09,23,09,02,15.30
2009,09,23,09,03,15.30
2009,09,23,09,04,15.30
2009,09,23,09,05,15.40
2009,09,23,09,06,15.40
2009,09,23,09,07,15.50
2009,09,23,09,08,15.50
2009,09,23,09,09,15.60
2009,09,23,09,10,15.70
2009,09,23,09,11,15.70
2009,09,23,09,12,15.70
2009,09,23,09,13,15.80
2009,09,23,09,14,15.80
2009,09,23,09,15,15.90
2009,09,23,09,16,16.00
2009,09,23,09,17,16.00
2009,09,23,09,18,16.10
2009,09,23,09,19,16.20
2009,09,23,09,20,16.30
2009,09,23,09,21,16.30
2009,09,23,09,22,16.40
2009,09,23,09,23,16.40
2009,09,23,09,24,16.50
2009,09,23,09,25,16.60
2009,09,23,09,26,16.60
2009,09,23,09,27,16.70
2009,09,23,09,28,16.80
2009,09,23,09,29,16.80
2009,09,23,09,30,16.90
2009,09,23,09,31,16.90
2009,09,23,09,32,17.00
2009,09,23,09,33,17.00
2009,09,23,09,34,17.10
2009,09,23,09,35,17.20
2009,09,23,09,36,17.20
2009,09,23,09,37,17.20
2009,09,23,09,38,17.30
2009,09,23,09,39,17.30
2009,09,23,09,40,17.40
2009,09,23,09,41,17.50
2009,09,23,09,42,17.50
2009,09,23,09,43,17.60
2009,09,23,09,44,17.60
2009,09,23,09,45,17.70
2009,09,23,09,46,17.80
2009,09,23,09,47,17.80
2009,09,23,09,48,17.90
2009,09,23,09,49,17.90
2009,09,23,09,50,17.90
2009,09,23,09,51,18.00
2009,09,23,09,52,18.10
2009,09,23,09,53,18.10
2009,09,23,09,54,18.20
2009,09,23,09,55,18.30
2009,09,23,09,56,18.40
2009,09,23,09,57,18.40
2009,09,23,09,58,18.50
2009,09,23,09,59,18.50
2009,09,23,10,00,18.60
2009,09,23,10,01,18.70
2009,09,23,10,02,18.70
2009,09,23,10,03,18.80
2009,09,23,10,04,18.90
2009,09,23,10,05,18.90
2009,09,23,10,06,19.00
2009,09,23,10,07,19.10
2009,09,23,10,08,19.10
2009,09,23,10,09,19.20
2009,09,23,10,10,19.30
2009,09,23,10,11,19.30
2009,09,23,10,12,19.40
2009,09,23,10,13,19.50
2009,09,23,10,14,19.60
2009,09,23,10,15,19.70
2009,09,23,10,16,19.80
2009,09,23,10,17,19.80
2009,09,23,10,18,19.80
2009,09,23,10,19,19.90
2009,09,23,10,20,19.90
2009,09,23,10,21,19.80
2009,09,23,10,22,19.80
2009,09,23,10,23,19.80
2009,09,23,10,24,19.80
2009,09,23,10,25,19.70
2009,09,23,10,26,19.70
2009,09,23,10,27,19.70
2009,09,23,10,28,19.70
2009,09,23,10,29,19.60
2009,09,23,10,30,19.60
2009,09,23,10,31,19.60
2009,09,23,10,32,19.60
2009,09,23,10,33,19.60
2009,09,23,10,34,19.60
2009,09,23,10,35,19.60
2009,09,23,10,36,19.60
2009,09,23,10,37,19.60
2009,09,23,10,38,19.60
2009,09,23,10,39,19.60
2009,09,23,10,40,19.60
2009,09,23,10,41,19.60
2009,09,23,10,42,19.60
2009,09,23,10,43,19.60
2009,09,23,10,44,19.60
2009,09,23,10,45,19.70
2009,09,23,10,46,19.70
2009,09,23,10,47,19.70
2009,09,23,10,48,19.70
2009,09,23,10,49,19.80
2009,09,23,10,50,19.80
2009,09,23,10,51,19.80
2009,09,23,10,52,19.80
2009,09,23,10,53,19.80
2009,09,23,10,54,19.80
2009,09,23,10,55,19.80
2009,09,23,10,56,19.80
2009,09,23,10,57,19.90
2009,09,23,10,58,19.90
2009,09,23,10,59,19.90
2009,09,23,11,00,20.00
2009,09,23,11,01,20.00
2009,09,23,11,02,20.10
2009,09,23,11,03,20.20
2009,09,23,11,04,20.20
2009,09,23,11,05,20.30
2009,09,23,11,06,20.30
2009,09,23,11,07,20.40
2009,09,23,11,08,20.40
2009,09,23,11,09,20.50
2009,09,23,11,10,20.60
2009,09,23,11,11,20.70
2009,09,23,11,12,20.70
2009,09,23,11,13,20.80
2009,09,23,11,14,20.80
2009,09,23,11,15,20.90
2009,09,23,11,16,20.90
2009,09,23,11,17,21.00
2009,09,23,11,18,21.10
2009,09,23,11,19,21.20
2009,09,23,11,20,21.20
2009,09,23,11,21,21.30
2009,09,23,11,22,21.40
2009,09,23,11,23,21.40
2009,09,23,11,24,21.40
2009,09,23,11,25,21.40
2009,09,23,11,26,21.40
2009,09,23,11,27,21.40
2009,09,23,11,28,21.50
2009,09,23,11,29,21.50
2009,09,23,11,30,21.60
2009,09,23,11,31,21.60
2009,09,23,11,32,21.60
2009,09,23,11,33,21.60
2009,09,23,11,34,21.60
2009,09,23,11,35,21.60
2009,09,23,11,36,21.70
2009,09,23,11,37,21.70
2009,09,23,11,38,21.80
2009,09,23,11,39,21.80
2009,09,23,11,40,21.80
2009,09,23,11,41,21.80
2009,09,23,11,42,21.80
2009,09,23,11,43,21.80
2009,09,23,11,44,21.80
2009,09,23,11,45,21.80
2009,09,23,11,46,21.80
2009,09,23,11,47,21.70
2009,09,23,11,48,21.70
2009,09,23,11,49,21.70
2009,09,23,11,50,21.70
2009,09,23,11,51,21.70
2009,09,23,11,52,21.70
2009,09,23,11,53,21.70
2009,09,23,11,54,21.70
2009,09,23,11,55,21.70
2009,09,23,11,56,21.70
2009,09,23,11,57,21.80
2009,09,23,11,58,21.80
2009,09,23,11,59,21.80
2009,09,23,12,00,21.90
2009,09,23,12,01,22.00
2009,09,23,12,02,22.00
2009,09,23,12,03,22.10
2009,09,23,12,04,22.20
2009,09,23,12,05,22.20
2009,09,23,12,06,22.30
2009,09,23,12,07,22.30
2009,09,23,12,08,22.30
2009,09,23,12,09,22.40
2009,09,23,12,10,22.40
2009,09,23,12,11,22.40
2009,09,23,12,12,22.50
2009,09,23,12,13,22.50
2009,09,23,12,14,22.60
2009,09,23,12,15,22.60
2009,09,23,12,16,22.70
2009,09,23,12,17,22.80
2009,09,23,12,18,22.90
2009,09,23,12,19,22.90
2009,09,23,12,20,22.90
2009,09,23,12,21,22.90
2009,09,23,12,22,22.90
2009,09,23,12,23,22.90
2009,09,23,12,24,22.90
2009,09,23,12,25,22.90
2009,09,23,12,26,22.90
2009,09,23,12,27,22.90
2009,09,23,12,28,22.90
2009,09,23,12,29,22.90
2009,09,23,12,30,22.90
2009,09,23,12,31,22.90
2009,09,23,12,32,23.00
2009,09,23,12,33,23.10
2009,09,23,12,34,23.20
2009,09,23,12,35,23.20
2009,09,23,12,36,23.30
2009,09,23,12,37,23.40
2009,09,23,12,38,23.40
2009,09,23,12,39,23.50
2009,09,23,12,40,23.50
2009,09,23,12,41,23.60
2009,09,23,12,42,23.60
2009,09,23,12,43,23.60
2009,09,23,12,44,23.60
2009,09,23,12,45,23.60
2009,09,23,12,46,23.60
2009,09,23,12,47,23.60
2009,09,23,12,48,23.60
2009,09,23,12,49,23.60
2009,09,23,12,50,23.70
2009,09,23,12,51,23.80
2009,09,23,12,52,23.80
2009,09,23,12,53,23.80
2009,09,23,12,54,23.80
2009,09,23,12,55,23.80
2009,09,23,12,56,23.80
2009,09,23,12,57,23.80
2009,09,23,12,58,23.80
2009,09,23,12,59,23.80
2009,09,23,13,00,23.70
2009,09,23,13,01,23.70
2009,09,23,13,02,23.70
2009,09,23,13,03,23.70
2009,09,23,13,04,23.70
2009,09,23,13,05,23.70
2009,09,23,13,06,23.70
2009,09,23,13,07,23.60
2009,09,23,13,08,23.60
2009,09,23,13,09,23.60
2009,09,23,13,10,23.60
2009,09,23,13,11,23.60
2009,09,23,13,12,23.60
2009,09,23,13,13,23.70
2009,09,23,13,14,23.70
2009,09,23,13,15,23.60
2009,09,23,13,16,23.50
2009,09,23,13,17,23.50
2009,09,23,13,18,23.40
2009,09,23,13,19,23.40
2009,09,23,13,20,23.40
2009,09,23,13,21,23.40
2009,09,23,13,22,23.50
2009,09,23,13,23,23.60
2009,09,23,13,24,23.70
2009,09,23,13,25,23.80
2009,09,23,13,26,23.80
2009,09,23,13,27,23.80
2009,09,23,13,28,23.80
2009,09,23,13,29,23.80
2009,09,23,13,30,23.80
2009,09,23,13,31,23.80
2009,09,23,13,32,23.90
2009,09,23,13,33,23.90
2009,09,23,13,34,23.90
2009,09,23,13,35,23.90
2009,09,23,13,36,23.90
2009,09,23,13,37,23.90
2009,09,23,13,38,23.90
2009,09,23,13,39,23.90
2009,09,23,13,40,23.80
2009,09,23,13,41,23.80
2009,09,23,13,42,23.80
2009,09,23,13,43,23.70
2009,09,23,13,44,23.70
2009,09,23,13,45,23.80
2009,09,23,13,46,23.80
2009,09,23,13,47,23.80
2009,09,23,13,48,23.80
2009,09,23,13,49,23.80
2009,09,23,13,50,23.80
2009,09,23,13,51,23.80
2009,09,23,13,52,23.80
2009,09,23,13,53,23.80
2009,09,23,13,54,23.80
2009,09,23,13,55,23.70
2009,09,23,13,56,23.70
2009,09,23,13,57,23.80
2009,09,23,13,58,23.90
2009,09,23,13,59,24.00
2009,09,23,14,00,24.10
2009,09,23,14,01,24.20
2009,09,23,14,02,24.20
2009,09,23,14,03,24.10
2009,09,23,14,04,24.00
2009,09,23,14,05,24.00
2009,09,23,14,06,23.90
2009,09,23,14,07,23.90
2009,09,23,14,08,23.80
2009,09,23,14,09,23.80
2009,09,23,14,10,23.90
2009,09,23,14,11,23.90
2009,09,23,14,12,24.00
2009,09,23,14,13,24.00
2009,09,23,14,14,24.00
2009,09,23,14,15,24.00
2009,09,23,14,16,24.10
2009,09,23,14,17,24.10
2009,09,23,14,18,24.20
2009,09,23,14,19,24.30
2009,09,23,14,20,24.30
2009,09,23,14,21,24.40
2009,09,23,14,22,24.50
2009,09,23,14,23,24.60
2009,09,23,14,24,24.60
2009,09,23,14,25,24.60
2009,09,23,14,26,24.70
2009,09,23,14,27,24.70
2009,09,23,14,28,24.80
2009,09,23,14,29,24.80
2009,09,23,14,30,24.70
2009,09,23,14,31,24.60
2009,09,23,14,32,24.50
2009,09,23,14,33,24.50
2009,09,23,14,34,24.50
2009,09,23,14,35,24.50
2009,09,23,14,36,24.60
2009,09,23,14,37,24.60
2009,09,23,14,38,24.70
2009,09,23,14,39,24.80
2009,09,23,14,40,24.90
2009,09,23,14,41,24.90
2009,09,23,14,42,24.90
2009,09,23,14,43,24.90
2009,09,23,14,44,25.00
2009,09,23,14,45,25.00
2009,09,23,14,46,25.00
2009,09,23,14,47,25.00
2009,09,23,14,48,24.90
2009,09,23,14,49,24.90
2009,09,23,14,50,24.90
2009,09,23,14,51,24.90
2009,09,23,14,52,24.90
2009,09,23,14,53,24.90
2009,09,23,14,54,24.90
2009,09,23,14,55,24.90
2009,09,23,14,56,24.90
2009,09,23,14,57,25.00
2009,09,23,14,58,25.10
2009,09,23,14,59,25.20
2009,09,23,15,00,25.30
2009,09,23,15,01,25.40
2009,09,23,15,02,25.40
2009,09,23,15,03,25.40
2009,09,23,15,04,25.40
2009,09,23,15,05,25.40
2009,09,23,15,06,25.40
2009,09,23,15,07,25.40
2009,09,23,15,08,25.40
2009,09,23,15,09,25.40
2009,09,23,15,10,25.40
2009,09,23,15,11,25.30
2009,09,23,15,12,25.30
2009,09,23,15,13,25.30
2009,09,23,15,14,25.20
2009,09,23,15,15,25.20
2009,09,23,15,16,25.20
2009,09,23,15,17,25.10
2009,09,23,15,18,25.00
2009,09,23,15,19,24.90
2009,09,23,15,20,24.90
2009,09,23,15,21,25.00
2009,09,23,15,22,25.00
2009,09,23,15,23,25.10
2009,09,23,15,24,25.10
2009,09,23,15,25,25.10
2009,09,23,15,26,25.10
2009,09,23,15,27,25.00
2009,09,23,15,28,24.90
2009,09,23,15,29,24.80
2009,09,23,15,30,24.80
2009,09,23,15,31,24.70
2009,09,23,15,32,24.70
2009,09,23,15,33,24.70
2009,09,23,15,34,24.70
2009,09,23,15,35,24.70
2009,09,23,15,36,24.70
2009,09,23,15,37,24.80
2009,09,23,15,38,24.80
2009,09,23,15,39,24.80
2009,09,23,15,40,24.80
2009,09,23,15,41,24.90
2009,09,23,15,42,24.90
2009,09,23,15,43,24.90
2009,09,23,15,44,24.90
2009,09,23,15,45,24.80
2009,09,23,15,46,24.80
2009,09,23,15,47,24.70
2009,09,23,15,48,24.60
2009,09,23,15,49,24.50
2009,09,23,15,50,24.50
2009,09,23,15,51,24.40
2009,09,23,15,52,24.30
2009,09,23,15,53,24.30
2009,09,23,15,54,24.30
2009,09,23,15,55,24.30
2009,09,23,15,56,24.30
2009,09,23,15,57,24.30
2009,09,23,15,58,24.30
2009,09,23,15,59,24.30
2009,09,23,16,00,24.30
2009,09,23,16,01,24.30
2009,09,23,16,02,24.30
2009,09,23,16,03,24.20
2009,09,23,16,04,24.20
2009,09,23,16,05,24.20
2009,09,23,16,06,24.20
2009,09,23,16,07,24.30
2009,09,23,16,08,24.30
2009,09,23,16,09,24.30
2009,09,23,16,10,24.30
2009,09,23,16,11,24.30
2009,09,23,16,12,24.30
2009,09,23,16,13,24.30
2009,09,23,16,14,24.30
2009,09,23,16,15,24.40
2009,09,23,16,16,24.40
2009,09,23,16,17,24.50
2009,09,23,16,18,24.50
2009,09,23,16,19,24.60
2009,09,23,16,20,24.70
2009,09,23,16,21,24.70
2009,09,23,16,22,24.80
2009,09,23,16,23,24.80
2009,09,23,16,24,24.90
2009,09,23,16,25,25.00
2009,09,23,16,26,25.00
2009,09,23,16,27,25.00
2009,09,23,16,28,25.00
2009,09,23,16,29,25.00
2009,09,23,16,30,25.00
2009,09,23,16,31,25.00
2009,09,23,16,32,25.10
2009,09,23,16,33,25.10
2009,09,23,16,34,25.10
2009,09,23,16,35,25.20
2009,09,23,16,36,25.30
2009,09,23,16,37,25.30
2009,09,23,16,38,25.30
2009,09,23,16,39,25.40
2009,09,23,16,40,25.50
2009,09,23,16,41,25.60
2009,09,23,16,42,25.60
2009,09,23,16,43,25.70
2009,09,23,16,44,25.70
2009,09,23,16,45,25.80
2009,09,23,16,46,25.90
2009,09,23,16,47,25.90
2009,09,23,16,48,26.00
2009,09,23,16,49,26.10
2009,09,23,16,50,26.10
2009,09,23,16,51,26.10
2009,09,23,16,52,26.10
2009,09,23,16,53,26.10
2009,09,23,16,54,26.10
2009,09,23,16,55,26.20
2009,09,23,16,56,26.10
2009,09,23,16,57,26.10
2009,09,23,16,58,26.10
2009,09,23,16,59,26.20
2009,09,23,17,00,26.20
2009,09,23,17,01,26.20
2009,09,23,17,02,26.20
2009,09,23,17,03,26.20
2009,09,23,17,04,26.20
2009,09,23,17,05,26.30
2009,09,23,17,06,26.30
2009,09,23,17,07,26.30
2009,09,23,17,08,26.30
2009,09,23,17,09,26.30
2009,09,23,17,10,26.30
2009,09,23,17,11,26.20
2009,09,23,17,12,26.20
2009,09,23,17,13,26.20
2009,09,23,17,14,26.20
2009,09,23,17,15,26.20
2009,09,23,17,16,26.20
2009,09,23,17,17,26.20
2009,09,23,17,18,26.20
2009,09,23,17,19,26.20
2009,09,23,17,20,26.20
2009,09,23,17,21,26.30
2009,09,23,17,22,26.30